Location: Limerick
(52.6650°N, 8.6230°W)
Time: 19:45:20
(UTC+01:00)

ISS - Pass Details

Date: 18 July 2017
Orbit: 400 x 408 km, 51.6° (Epoch: 21 July)

Event Time Altitude Azimuth Distance (km) Brightness Sun altitude
Exits shadow 03:34:15 11° 258° (WSW) 1,403 -1.5 -12.3°
Maximum altitude 03:37:23 72° 174° (S) 427 -3.9 -12.1°
Drops below altitude 10° 03:40:38 10° 90° (E) 1,459 -0.6 -11.9°
Sets 03:42:43 0° 88° (E) 2,320 0.5 -11.7°
